Find Starlink 11583

NORAD ID: 62991 Int'l Des: 2025-031 Owner: SPXS Country: US Constellation: starlink operational
LEOCIRCULAR

Live Position

Loading 3D Globe...

About Starlink 11583

Description loading...

Upcoming Passes

Passes for default location (London). Set your location on the main map for personalized predictions.

Altitude History

Loading altitude history...

Two-Line Element Set

1 62991U 25031L 26125.74972894 .00234665 00000-0 17731-2 0 9991
2 62991 42.9997 17.7690 0004151 287.8056 72.2358 15.70942459 71726
Epoch: May 5, 2026 • Age: 12 hours

Current Status

Altitude 356.3 km
Velocity 7.70 km/s
Sub-Earth Point -13.91°S, 43.6°E
Launch Date Feb 11, 2025
Age 1.2 years
Type internet

Technical Details

Classification Payload
Mass 960.00 kg
Dry Mass 910.00 kg
Total Mass 960.00 kg
Length 0.30 m
Diameter 4.10 m
Span 29.00 m
Shape Box + pan
Manufacturer SPXS
Bus Type Starlink V2MD
Phase Status In Orbit
Owner/State SPXS/US

Most Searched